Hourly Weather Barrancas

Today, 25 October, Sunday

Time Temperature Precipitation Wind Pressure Humidity
00:00 +28°C° 0.2 mm 3 mps 755 mmHg 83%
01:00 +28°C° 0.2 mm 3 mps 755 mmHg 84%
02:00 +28°C° 0.1 mm 3 mps 755 mmHg 84%
03:00 +28°C° 0.1 mm 2 mps 755 mmHg 84%
04:00 +27°C° 0.1 mm 2 mps 755 mmHg 84%
05:00 +28°C° 0.3 mm 2 mps 755 mmHg 82%
06:00 +28°C° 0.3 mm 2 mps 756 mmHg 80%
07:00 +29°C° 0.3 mm 2 mps 757 mmHg 78%
08:00 +30°C° 0.5 mm 2 mps 757 mmHg 73%
09:00 +32°C° 0.5 mm 2 mps 757 mmHg 67%
10:00 +34°C° 0.5 mm 3 mps 757 mmHg 62%
11:00 +34°C° 1.9 mm 3 mps 756 mmHg 64%
12:00 +34°C° 1.9 mm 2 mps 755 mmHg 66%
13:00 +34°C° 1.9 mm 2 mps 755 mmHg 69%
14:00 +34°C° 1 mm 2 mps 754 mmHg 71%
15:00 +32°C° 1 mm 2 mps 754 mmHg 73%
16:00 +33°C° 1 mm 3 mps 754 mmHg 76%
17:00 +31°C° 0.1 mm 3 mps 754 mmHg 78%
18:00 +30°C° 0.1 mm 3 mps 755 mmHg 80%
19:00 +29°C° 0.1 mm 3 mps 755 mmHg 83%
20:00 +29°C° 1 mm 3 mps 756 mmHg 84%
21:00 +28°C° 1 mm 2 mps 756 mmHg 85%
22:00 +28°C° 1 mm 2 mps 756 mmHg 87%
23:00 +28°C° 0.6 mm 2 mps 756 mmHg 87%

Tomorrow, 26 October, Monday

Time Temperature Precipitation Wind Pressure Humidity
00:00 +28°C° 0.6 mm 2 mps 756 mmHg 87%
01:00 +27°C° 0.6 mm 2 mps 756 mmHg 88%
02:00 +27°C° 0.1 mm 2 mps 755 mmHg 88%
03:00 +27°C° 0.1 mm 2 mps 755 mmHg 88%
04:00 +27°C° 0.1 mm 2 mps 755 mmHg 88%
05:00 +27°C° 0.2 mm 2 mps 756 mmHg 86%
06:00 +28°C° 0.2 mm 1 mps 756 mmHg 84%
07:00 +29°C° 0.2 mm 1 mps 757 mmHg 82%
08:00 +30°C° 0.1 mm 1 mps 757 mmHg 75%
09:00 +32°C° 0.1 mm 1 mps 757 mmHg 68%
10:00 +35°C° 0.1 mm 2 mps 757 mmHg 61%
11:00 +35°C° 0.3 mm 2 mps 757 mmHg 62%
12:00 +34°C° 0.3 mm 2 mps 756 mmHg 64%
13:00 +34°C° 0.3 mm 2 mps 755 mmHg 66%
14:00 +34°C° 0.6 mm 2 mps 755 mmHg 69%
15:00 +32°C° 0.6 mm 2 mps 754 mmHg 71%
16:00 +32°C° 0.6 mm 2 mps 754 mmHg 73%
17:00 +31°C° 0.4 mm 2 mps 755 mmHg 77%
18:00 +30°C° 0.4 mm 2 mps 755 mmHg 80%
19:00 +29°C° 0.4 mm 2 mps 756 mmHg 84%
20:00 +28°C° 0.2 mm 3 mps 756 mmHg 85%
21:00 +28°C° 0.2 mm 3 mps 756 mmHg 86%
22:00 +28°C° 0.2 mm 4 mps 757 mmHg 88%
23:00 +28°C° 0.4 mm 4 mps 757 mmHg 88%

Day after tomorrow, 27 October, Tuesday

Time Temperature Precipitation Wind Pressure Humidity
00:00 +27°C° 0.4 mm 4 mps 756 mmHg 88%
01:00 +27°C° 0.4 mm 4 mps 756 mmHg 89%
02:00 +27°C° 0.1 mm 3 mps 756 mmHg 89%
03:00 +27°C° 0.1 mm 3 mps 756 mmHg 89%
04:00 +26°C° 0.1 mm 3 mps 756 mmHg 89%
05:00 +27°C° 0 mm 3 mps 756 mmHg 87%
06:00 +27°C° 0 mm 2 mps 757 mmHg 85%
07:00 +28°C° 0 mm 2 mps 757 mmHg 83%
08:00 +30°C° 0 mm 2 mps 757 mmHg 76%
09:00 +31°C° 0 mm 2 mps 757 mmHg 68%
10:00 +34°C° 0 mm 2 mps 757 mmHg 60%
11:00 +34°C° 0 mm 2 mps 756 mmHg 61%
12:00 +33°C° 0 mm 1 mps 755 mmHg 61%
13:00 +33°C° 0 mm 1 mps 754 mmHg 62%
14:00 +34°C° 0.1 mm 2 mps 754 mmHg 64%
15:00 +33°C° 0.1 mm 3 mps 753 mmHg 66%
16:00 +33°C° 0.1 mm 3 mps 753 mmHg 68%
17:00 +32°C° 0.2 mm 4 mps 754 mmHg 72%
18:00 +30°C° 0.2 mm 4 mps 754 mmHg 75%
19:00 +29°C° 0.2 mm 5 mps 755 mmHg 79%
20:00 +29°C° 0.2 mm 4 mps 755 mmHg 80%
21:00 +29°C° 0.2 mm 4 mps 755 mmHg 82%
22:00 +28°C° 0.2 mm 4 mps 756 mmHg 83%
23:00 +28°C° 0.9 mm 4 mps 755 mmHg 84%

, 28 October, Wednesday

Time Temperature Precipitation Wind Pressure Humidity
00:00 +27°C° 0.9 mm 3 mps 755 mmHg 85%
01:00 +27°C° 0.9 mm 3 mps 755 mmHg 86%
02:00 +27°C° 0.3 mm 3 mps 755 mmHg 87%
03:00 +27°C° 0.3 mm 2 mps 755 mmHg 87%
04:00 +26°C° 0.3 mm 2 mps 755 mmHg 88%
05:00 +27°C° 0.1 mm 2 mps 755 mmHg 86%
06:00 +27°C° 0.1 mm 2 mps 755 mmHg 85%
07:00 +28°C° 0.1 mm 1 mps 756 mmHg 83%
08:00 +30°C° 0.1 mm 2 mps 756 mmHg 76%
09:00 +31°C° 0.1 mm 2 mps 756 mmHg 69%
10:00 +34°C° 0.1 mm 2 mps 756 mmHg 62%
11:00 +34°C° 0.3 mm 2 mps 755 mmHg 63%
12:00 +34°C° 0.3 mm 2 mps 754 mmHg 64%
13:00 +33°C° 0.3 mm 1 mps 753 mmHg 65%
14:00 +34°C° 0.2 mm 2 mps 753 mmHg 67%
15:00 +32°C° 0.2 mm 2 mps 753 mmHg 68%
16:00 +32°C° 0.2 mm 2 mps 752 mmHg 70%
17:00 +31°C° 0.1 mm 3 mps 753 mmHg 73%
18:00 +30°C° 0.1 mm 3 mps 754 mmHg 76%
19:00 +29°C° 0.1 mm 4 mps 754 mmHg 80%
20:00 +29°C° 0.2 mm 4 mps 755 mmHg 81%
21:00 +28°C° 0.2 mm 4 mps 755 mmHg 82%
22:00 +28°C° 0.2 mm 4 mps 755 mmHg 84%
23:00 +28°C° 1 mm 3 mps 755 mmHg 85%

28 October, Wednesday

Time Temperature Precipitation Wind Pressure Humidity
00:00 +27°C° 0.9 mm 3 mps 755 mmHg 85%
01:00 +27°C° 0.9 mm 3 mps 755 mmHg 86%
02:00 +27°C° 0.3 mm 3 mps 755 mmHg 87%
03:00 +27°C° 0.3 mm 2 mps 755 mmHg 87%
04:00 +26°C° 0.3 mm 2 mps 755 mmHg 88%
05:00 +27°C° 0.1 mm 2 mps 755 mmHg 86%
06:00 +27°C° 0.1 mm 2 mps 755 mmHg 85%
07:00 +28°C° 0.1 mm 1 mps 756 mmHg 83%
08:00 +30°C° 0.1 mm 2 mps 756 mmHg 76%
09:00 +31°C° 0.1 mm 2 mps 756 mmHg 69%
10:00 +34°C° 0.1 mm 2 mps 756 mmHg 62%
11:00 +34°C° 0.3 mm 2 mps 755 mmHg 63%
12:00 +34°C° 0.3 mm 2 mps 754 mmHg 64%
13:00 +33°C° 0.3 mm 1 mps 753 mmHg 65%
14:00 +34°C° 0.2 mm 2 mps 753 mmHg 67%
15:00 +32°C° 0.2 mm 2 mps 753 mmHg 68%
16:00 +32°C° 0.2 mm 2 mps 752 mmHg 70%
17:00 +31°C° 0.1 mm 3 mps 753 mmHg 73%
18:00 +30°C° 0.1 mm 3 mps 754 mmHg 76%
19:00 +29°C° 0.1 mm 4 mps 754 mmHg 80%
20:00 +29°C° 0.2 mm 4 mps 755 mmHg 81%
21:00 +28°C° 0.2 mm 4 mps 755 mmHg 82%
22:00 +28°C° 0.2 mm 4 mps 755 mmHg 84%
23:00 +28°C° 1 mm 3 mps 755 mmHg 85%

29 October, Thursday

Time Temperature Precipitation Wind Pressure Humidity
00:00 +27°C° 1 mm 3 mps 755 mmHg 86%
01:00 +27°C° 1 mm 2 mps 754 mmHg 88%
02:00 +27°C° 0.2 mm 2 mps 754 mmHg 87%
03:00 +27°C° 0.2 mm 2 mps 754 mmHg 87%
04:00 +26°C° 0.2 mm 2 mps 754 mmHg 87%
05:00 +27°C° 0.5 mm 2 mps 755 mmHg 86%
06:00 +27°C° 0.5 mm 2 mps 755 mmHg 85%
07:00 +28°C° 0.5 mm 2 mps 756 mmHg 83%
08:00 +29°C° 1.1 mm 2 mps 756 mmHg 79%
09:00 +30°C° 1.1 mm 3 mps 756 mmHg 75%
10:00 +33°C° 1.1 mm 4 mps 756 mmHg 71%
11:00 +33°C° 0.5 mm 3 mps 756 mmHg 70%
12:00 +32°C° 0.5 mm 2 mps 755 mmHg 70%
13:00 +32°C° 0.5 mm 2 mps 754 mmHg 69%
14:00 +32°C° 0.5 mm 1 mps 754 mmHg 70%
15:00 +32°C° 0.5 mm 1 mps 754 mmHg 71%
16:00 +32°C° 0.5 mm 1 mps 753 mmHg 72%
17:00 +31°C° 0.3 mm 1 mps 754 mmHg 75%
18:00 +29°C° 0.3 mm 2 mps 754 mmHg 78%
19:00 +28°C° 0.3 mm 2 mps 755 mmHg 81%
20:00 +28°C° 0.3 mm 2 mps 755 mmHg 83%
21:00 +28°C° 0.3 mm 2 mps 756 mmHg 84%
22:00 +27°C° 0.3 mm 3 mps 756 mmHg 85%
23:00 +27°C° 0.1 mm 2 mps 756 mmHg 86%

30 October, Friday

Time Temperature Precipitation Wind Pressure Humidity
00:00 +27°C° 0.1 mm 2 mps 756 mmHg 87%
01:00 +27°C° 0.1 mm 1 mps 755 mmHg 88%
02:00 +27°C° 1.6 mm 1 mps 755 mmHg 89%
03:00 +27°C° 1.6 mm 2 mps 755 mmHg 89%
04:00 +27°C° 1.6 mm 2 mps 755 mmHg 90%
05:00 +27°C° 1.1 mm 2 mps 756 mmHg 89%
06:00 +27°C° 1.1 mm 1 mps 756 mmHg 89%
07:00 +27°C° 1.1 mm 1 mps 757 mmHg 88%
08:00 +29°C° 1.1 mm 2 mps 757 mmHg 82%
09:00 +30°C° 1.1 mm 2 mps 757 mmHg 76%
10:00 +32°C° 1.1 mm 2 mps 757 mmHg 70%
11:00 +32°C° 0.1 mm 2 mps 756 mmHg 67%
12:00 +34°C° 0.1 mm 2 mps 755 mmHg 63%
13:00 +35°C° 0.1 mm 2 mps 754 mmHg 59%
14:00 +34°C° 0.2 mm 2 mps 754 mmHg 62%
15:00 +34°C° 0.2 mm 2 mps 754 mmHg 64%
16:00 +32°C° 0.2 mm 2 mps 754 mmHg 67%
17:00 +31°C° 0.3 mm 2 mps 754 mmHg 71%
18:00 +30°C° 0.3 mm 3 mps 755 mmHg 76%
19:00 +28°C° 0.3 mm 3 mps 756 mmHg 81%
20:00 +28°C° 0.5 mm 3 mps 756 mmHg 82%
21:00 +28°C° 0.5 mm 4 mps 756 mmHg 83%
22:00 +28°C° 0.5 mm 4 mps 757 mmHg 84%
23:00 +28°C° 0.3 mm 4 mps 756 mmHg 85%
Show more